Location: Newark
(49.8348°N, 24.0280°E)
Time: 05:21:43
(UTC+00:00)

A-11 Canister half - All Passes

Search period start: 19 January 2020 00:00
Search period end: 29 January 2020 00:00
Orbit: 1525 x 1684 km, 47.3° (Epoch: 18 January)

Date Brightness Start Highest point End Pass type
(mag) Time Alt. Az. Time Alt. Az. Time Alt. Az.
19 Jan - 01:05:45 10° W 01:13:03 24° SW 01:20:28 10° S night (unlit)
19 Jan - 16:27:01 10° SSW 16:34:42 30° SE 16:42:34 10° E visible
19 Jan - 18:29:10 10° SW 18:38:26 63° SSE 18:48:02 10° E visible
19 Jan - 20:33:35 10° W 20:43:10 78° S 20:53:07 10° E visible
19 Jan - 22:38:25 10° W 22:47:51 57° SSW 22:57:34 10° SE night (unlit)
20 Jan - 00:44:01 10° W 00:51:28 25° SW 00:59:05 10° S night (unlit)
20 Jan - 16:05:38 10° S 16:13:09 28° SE 16:20:51 10° E visible
20 Jan - 18:07:36 10° SW 18:16:49 62° SSE 18:26:21 10° E visible
20 Jan - 20:11:58 10° W 20:21:32 78° S 20:31:26 10° E visible
20 Jan - 22:16:47 10° W 22:26:13 59° SSW 22:35:57 10° SE visible
21 Jan - 00:22:18 10° W 00:29:54 26° SW 00:37:41 10° S night (unlit)
21 Jan - 15:44:15 10° S 15:51:36 27° SE 15:59:07 10° E visible
21 Jan - 17:46:02 10° SW 17:55:12 60° SSE 18:04:42 10° E visible
21 Jan - 19:50:21 10° W 19:59:53 78° S 20:09:46 10° E visible
21 Jan - 21:55:10 10° W 22:04:35 60° SSW 22:14:20 10° SE visible
22 Jan - 00:00:34 10° W 00:08:21 28° SW 00:16:16 10° S night (unlit)
22 Jan - 15:22:54 10° S 15:30:04 26° SE 15:37:22 10° E visible
22 Jan - 17:24:29 10° SW 17:33:36 59° SSE 17:43:02 10° E visible
22 Jan - 19:28:44 10° W 19:38:14 78° S 19:48:06 10° E visible
22 Jan - 21:33:32 10° W 21:42:58 61° SSW 21:52:43 10° SE visible
22 Jan - 23:38:52 10° W 23:46:46 29° SW 23:54:50 10° S night (unlit)
23 Jan - 15:01:33 10° S 15:08:32 24° SE 15:15:38 10° E daylight
23 Jan - 17:02:55 10° SW 17:12:00 57° SSE 17:21:21 10° E visible
23 Jan - 19:07:07 10° W 19:16:36 78° S 19:26:25 10° E visible
23 Jan - 21:11:54 10° W 21:21:21 63° SSW 21:31:06 10° SE visible
23 Jan - 23:17:11 10° W 23:25:11 30° SW 23:33:24 10° SSE night (unlit)
24 Jan - 14:40:13 10° S 14:47:00 23° SE 14:53:52 10° E daylight
24 Jan - 16:41:23 10° SW 16:50:24 56° SSE 16:59:42 10° E visible
24 Jan - 18:45:30 10° W 18:54:58 78° S 19:04:45 10° E visible
24 Jan - 20:50:17 10° W 20:59:43 64° SSW 21:09:28 10° ESE visible
24 Jan - 22:55:29 10° W 23:03:37 31° SW 23:11:56 10° SSE night (unlit)
25 Jan - 14:18:54 10° S 14:25:28 22° SE 14:32:06 10° E daylight
25 Jan - 16:19:50 10° SW 16:28:48 54° SSE 16:38:02 10° E visible
25 Jan - 18:23:53 10° W 18:33:19 77° S 18:43:05 10° E visible
25 Jan - 20:28:41 10° W 20:38:06 65° SSW 20:47:50 10° ESE visible
25 Jan - 22:33:49 10° W 22:42:03 33° SW 22:50:28 10° SSE visible
26 Jan - 13:57:37 10° S 14:03:56 21° SE 14:10:18 10° E daylight
26 Jan - 15:58:18 10° SW 16:07:13 52° SSE 16:16:23 10° E visible
26 Jan - 18:02:17 10° WSW 18:11:41 77° S 18:21:25 10° E visible
26 Jan - 20:07:03 10° W 20:16:28 66° SSW 20:26:13 10° ESE visible
26 Jan - 22:12:08 10° W 22:20:27 34° SW 22:28:59 10° SSE visible
27 Jan - 13:36:22 10° S 13:42:25 20° SE 13:48:30 10° E daylight
27 Jan - 15:36:46 10° SW 15:45:38 51° SSE 15:54:42 10° ENE visible
27 Jan - 17:40:41 10° WSW 17:50:03 77° S 17:59:45 10° E visible
27 Jan - 19:45:26 10° W 19:54:50 67° SSW 20:04:34 10° ESE visible
27 Jan - 21:50:29 10° W 21:58:53 35° SW 22:07:30 10° SSE visible
28 Jan - 13:15:07 10° SSE 13:20:53 18° SE 13:26:41 10° E daylight
28 Jan - 15:15:14 10° SW 15:24:02 49° SSE 15:33:03 10° ENE daylight
28 Jan - 17:19:04 10° WSW 17:28:26 76° S 17:38:05 10° E visible
28 Jan - 19:23:48 10° W 19:33:13 69° SSW 19:42:56 10° ESE visible
28 Jan - 21:28:49 10° W 21:37:18 37° SW 21:45:59 10° SSE visible
28 Jan - 23:38:58 10° WSW 23:40:04 10° WSW 23:41:11 10° SW night (unlit)
